Location: Degersen
(52.2871°N, 9.5716°E)
Time: 23:34:21
(UTC+00:00)

Cosmos 1758 - Pass Details

Date: 20 January 2026
Orbit: 479 x 500 km, 82.5° (Epoch: 17 February)

Event Time Altitude Azimuth Distance (km) Brightness Sun altitude
Exits shadow 04:49:52 69° 25° (NNE) 532 3.2 -22.3°
Drops below altitude 10° 04:53:11 10° 12° (NNE) 1,693 5.9 -21.8°
Sets 04:55:17 0° 12° (NNE) 2,576 6.8 -21.4°
